Weather History for KMFR - March, 2014

Change the Weather History Date:

Saturday, March 29, 2014

  Actual Average Record
Temperature  
Mean Temperature 52 °F 50 °F  
Max Temperature 60 °F 61 °F 84 °F (1911)
Min Temperature 43 °F 39 °F 22 °F (1929)
Degree Days  
Heating Degree Days 13 15  
Month to date heating degree days 384 488  
Since 1 July heating degree days 3754 3602  
Cooling Degree Days 0 0  
Month to date cooling degree days 0 0  
Year to date cooling degree days 0 0  
Growing Degree Days 2 (Base 50)    
Moisture  
Dew Point 40 °F    
Average Humidity 66    
Maximum Humidity 92    
Minimum Humidity 40    
Precipitation  
Precipitation 0.04 in 0.05 in 1.00 in (1974)
Month to date precipitation 3.41 1.61  
Year to date precipitation 8.74 6.05  
Snow  
Snow 0.00 in 0.00 in - ()
Month to date snowfall 0.0 0.5  
Since 1 July snowfall 3.4 4.1  
Snow Depth 0.00 in    
Sea Level Pressure  
Sea Level Pressure 29.94 in    
Wind  
Wind Speed 5 mph (West)    
Max Wind Speed 20 mph    
Max Gust Speed 27 mph    
Visibility 10 miles    
Events Rain    
T = Trace of Precipitation, MM = Missing Value Source: NWS Daily Summary

Daily Weather History Graph

Daily Weather History Graph

Search for Another Location

Airport or City:

Trip Planner

Search our weather history database for the weather conditions in past years. The results will help you decide how hot, cold, wet, or windy it might be!

Date:

Astronomy

Mar. 29, 2014 Rise Set
Actual Time 6:58 AM PDT 7:34 PM PDT
Civil Twilight 6:30 AM PDT 8:02 PM PDT
Nautical Twilight 5:57 AM PDT 8:35 PM PDT
Astronomical Twilight 5:22 AM PDT 9:10 PM PDT
Moon 6:12 AM PDT 6:44 PM PDT
Length of Visible Light 13h 31m
Length of Day
12h 35m
Waning Crescent, 1% of the Moon is Illuminated
Mar 29
Waning Crescent
Mar 30
New
Apr 7
First Quarter
Apr 15
Full
Apr 22
Last Quarter

Hourly Weather History & Observations

Time (PDT) Temp. Windchill Dew Point Humidity Pressure Visibility Wind Dir Wind Speed Gust Speed Precip Events Conditions
12:53 AM 48.0 °F - 45.0 °F 89% 29.91 in 10.0 mi South 8.1 mph - 0.01 in Rain Light Rain
1:53 AM 48.9 °F - 45.0 °F 86% 29.91 in 10.0 mi Calm Calm - 0.00 in   Overcast
2:53 AM 48.0 °F - 45.0 °F 89% 29.92 in 10.0 mi East 3.5 mph - N/A   Overcast
3:53 AM 48.0 °F - 45.0 °F 89% 29.92 in 10.0 mi ENE 6.9 mph - 0.01 in Rain Light Rain
4:53 AM 48.0 °F - 45.0 °F 89% 29.92 in 10.0 mi Calm Calm - 0.00 in   Overcast
5:53 AM 46.0 °F 44.8 °F 43.0 °F 89% 29.92 in 10.0 mi South 3.5 mph - N/A   Partly Cloudy
6:24 AM 46.0 °F 43.9 °F 44.1 °F 93% 29.92 in 6.0 mi West 4.6 mph - N/A   Partly Cloudy
6:53 AM 45.0 °F - 43.0 °F 93% 29.94 in 6.0 mi Calm Calm - N/A   Clear
7:01 AM 44.1 °F - 43.0 °F 96% 29.93 in 6.0 mi Calm Calm - N/A   Scattered Clouds
7:53 AM 44.1 °F - 41.0 °F 89% 29.95 in 10.0 mi Calm Calm - N/A   Scattered Clouds
8:53 AM 46.0 °F - 42.1 °F 86% 29.96 in 10.0 mi Calm Calm - N/A   Scattered Clouds
9:53 AM 50.0 °F - 44.1 °F 80% 29.95 in 10.0 mi Calm Calm - N/A   Scattered Clouds
10:53 AM 54.0 °F - 41.0 °F 62% 29.94 in 10.0 mi Calm Calm - N/A   Scattered Clouds
11:53 AM 55.9 °F - 33.1 °F 42% 29.93 in 10.0 mi SSW 15.0 mph 23.0 mph N/A   Clear
12:53 PM 57.0 °F - 33.1 °F 40% 29.93 in 10.0 mi SSW 15.0 mph 23.0 mph N/A   Overcast
1:53 PM 59.0 °F - 35.1 °F 41% 29.92 in 10.0 mi North 5.8 mph - N/A   Mostly Cloudy
2:53 PM 55.9 °F - 39.0 °F 53% 29.91 in 9.0 mi NNW 12.7 mph 21.9 mph 0.00 in Rain Light Rain
3:53 PM 55.9 °F - 37.9 °F 51% 29.90 in 10.0 mi NW 12.7 mph - 0.01 in   Overcast
4:53 PM 53.1 °F - 41.0 °F 64% 29.92 in 9.0 mi West 5.8 mph - 0.00 in Rain Light Rain
5:53 PM 54.0 °F - 37.0 °F 53% 29.91 in 10.0 mi WNW 11.5 mph - 0.00 in   Overcast
6:53 PM 53.1 °F - 37.0 °F 55% 29.94 in 10.0 mi WNW 8.1 mph - N/A   Mostly Cloudy
7:53 PM 48.0 °F - 37.9 °F 68% 29.97 in 10.0 mi West 9.2 mph - 0.00 in Rain Light Rain
8:53 PM 48.0 °F - 37.0 °F 66% 29.99 in 10.0 mi Calm Calm - 0.00 in   Mostly Cloudy
9:53 PM 46.9 °F - 37.0 °F 68% 29.99 in 10.0 mi NNW 3.5 mph - N/A   Scattered Clouds
10:53 PM 44.1 °F 41.5 °F 37.9 °F 79% 30.00 in 10.0 mi SW 4.6 mph - N/A   Mostly Cloudy
11:53 PM 43.0 °F 41.3 °F 37.9 °F 82% 29.99 in 10.0 mi South 3.5 mph - N/A   Overcast